Location: Bannatyne
(13.0833°N, 59.5333°W)
Time: 20:33:23
(UTC+00:00)

Vanguard 3 - Pass Details

Date: 02 February 2020
Orbit: 508 x 3263 km, 33.3° (Epoch: 19 February)

Event Time Altitude Azimuth Distance (km) Brightness Sun altitude
Rises 16:32:35 0° 234° (SW) 4,445 11.2 59.7°
Reaches altitude 10° 16:35:01 10° 234° (SW) 3,752 11.0 59.5°
Maximum altitude 16:45:37 86° 145° (SE) 2,293 10.7 58.9°
Drops below altitude 10° 17:03:45 10° 58° (ENE) 6,023 11.4 57.5°
Sets 17:08:51 0° 58° (ENE) 7,183 11.7 56.9°
